Location: *
(49.8044°N, 4.0558°E)
Time: 06:19:32
(UTC+00:00)

Cosmos 1328 - Pass Details

Date: 09 April 2020
Orbit: 540 x 544 km, 82.5° (Epoch: 29 May)

Event Time Altitude Azimuth Distance (km) Brightness Sun altitude
Rises 19:04:29 0° 350° (N) 2,724 7.8 -6.4°
Reaches altitude 10° 19:06:39 10° 352° (N) 1,826 6.9 -6.7°
Maximum altitude 19:10:41 81° 80° (E) 559 3.8 -7.3°
Drops below altitude 10° 19:14:40 10° 168° (SSE) 1,810 6.1 -7.9°
Sets 19:16:49 0° 169° (S) 2,698 7.0 -8.2°
